StationID,Date,MaxTemp,MinTemp,Precipitation,Snowfall,SnowDepth
"USR0000AHLM","1989-09-25",57.92,48.92,,,
"USR0000AHLM","1989-09-26",57.92,42.98,,,
"USR0000AHLM","1989-09-27",51.98,42.98,,,
"USR0000AHLM","1989-09-28",51.98,44.96,,,
"USR0000AHLM","1989-09-29",51.08,46.04,,,
"USR0000AHLM","1989-09-30",59.00,44.06,,,
"USR0000AHLM","1989-10-01",57.92,42.98,,,
"USR0000AHLM","1989-10-02",51.08,46.94,,,
"USR0000AHLM","1989-10-03",50.00,46.94,,,
"USR0000AHLM","1989-10-04",51.08,44.06,,,
"USR0000AHLM","1989-10-05",55.94,41.00,,,
"USR0000AHLM","1989-10-06",48.02,46.04,,,
"USR0000AHLM","1989-10-07",46.94,42.98,,,
"USR0000AHLM","1989-10-08",46.04,42.08,,,
"USR0000AHLM","1989-10-09",48.02,39.92,,,
"USR0000AHLM","1989-10-10",42.08,39.02,,,
"USR0000AHLM","1989-10-11",41.00,39.02,,,
"USR0000AHLM","1989-10-12",42.08,37.04,,,
"USR0000AHLM","1989-10-13",41.00,37.04,,,
"USR0000AHLM","1989-10-14",42.98,37.04,,,
"USR0000AHLM","1989-10-15",51.98,35.96,,,
"USR0000AHLM","1989-10-16",44.96,37.04,,,
"USR0000AHLM","1989-10-17",46.04,42.98,,,
"USR0000AHLM","1989-10-18",42.98,39.02,,,
"USR0000AHLM","1989-10-19",42.08,39.02,,,
"USR0000AHLM","1989-10-20",41.00,3.92,,,
"USR0000AHLM","1989-10-21",44.96,33.98,,,
"USR0000AHLM","1989-10-22",50.00,41.00,,,
"USR0000AHLM","1989-10-23",51.98,44.06,,,
"USR0000AHLM","1989-10-24",105.08,42.98,,,
"USR0000AHLM","1989-10-25",51.08,46.04,,,
"USR0000AHLM","1989-10-26",51.08,42.98,,,
"USR0000AHLM","1989-10-27",50.00,42.98,,,
"USR0000AHLM","1990-06-12",60.98,53.96,,,
"USR0000AHLM","1990-06-13",77.00,51.08,,,
"USR0000AHLM","1990-06-14",64.94,44.96,,,
"USR0000AHLM","1990-06-15",55.04,42.98,,,
"USR0000AHLM","1990-06-16",57.92,44.96,,,
"USR0000AHLM","1990-06-17",48.92,44.96,,,
"USR0000AHLM","1990-06-18",57.92,46.04,,,
"USR0000AHLM","1990-06-19",55.94,46.04,,,
"USR0000AHLM","1990-06-20",50.00,48.92,,,
"USR0000AHLM","1990-06-21",50.00,46.94,,,
"USR0000AHLM","1990-06-22",53.06,42.98,,,
"USR0000AHLM","1990-06-23",51.98,42.98,,,
"USR0000AHLM","1990-06-24",55.94,42.98,,,
"USR0000AHLM","1990-06-25",59.00,46.04,,,
"USR0000AHLM","1990-06-26",53.96,46.04,,,
"USR0000AHLM","1990-06-27",66.92,46.94,,,
"USR0000AHLM","1990-06-28",59.00,48.92,,,
"USR0000AHLM","1990-06-29",73.94,51.98,,,
"USR0000AHLM","1990-06-30",59.00,48.02,,,
"USR0000AHLM","1990-07-01",51.98,48.02,,,
"USR0000AHLM","1990-07-02",64.94,48.02,,,
"USR0000AHLM","1990-07-03",71.96,50.00,,,
"USR0000AHLM","1990-07-04",75.02,55.94,,,
"USR0000AHLM","1990-07-05",75.02,57.02,,,
"USR0000AHLM","1990-07-06",80.96,57.92,,,
"USR0000AHLM","1990-07-07",59.00,51.98,,,
"USR0000AHLM","1990-07-08",60.08,50.00,,,
"USR0000AHLM","1990-07-09",53.06,46.04,,,
"USR0000AHLM","1990-07-10",57.02,48.02,,,
"USR0000AHLM","1990-07-11",64.94,48.02,,,
"USR0000AHLM","1990-07-12",60.08,46.04,,,
"USR0000AHLM","1990-07-13",64.94,44.06,,,
"USR0000AHLM","1990-07-14",62.06,48.02,,,
"USR0000AHLM","1990-07-15",51.08,44.96,,,
"USR0000AHLM","1990-07-16",55.94,44.96,,,
"USR0000AHLM","1990-07-17",66.92,46.94,,,
"USR0000AHLM","1990-07-18",77.00,50.00,,,
"USR0000AHLM","1990-07-19",80.96,60.08,,,
"USR0000AHLM","1990-07-20",87.08,62.96,,,
"USR0000AHLM","1990-07-21",89.06,66.92,,,
"USR0000AHLM","1990-07-22",84.02,60.98,,,
"USR0000AHLM","1990-07-23",78.98,53.96,,,
"USR0000AHLM","1990-07-24",78.08,51.08,,,
"USR0000AHLM","1990-07-25",73.04,46.94,,,
"USR0000AHLM","1990-07-26",59.00,48.02,,,
"USR0000AHLM","1990-07-27",69.98,48.92,,,
"USR0000AHLM","1990-07-28",80.96,51.98,,,
"USR0000AHLM","1990-07-29",80.06,55.04,,,
"USR0000AHLM","1990-07-30",73.94,50.00,,,
"USR0000AHLM","1990-07-31",60.08,48.02,,,
"USR0000AHLM","1990-08-01",57.92,48.02,,,
"USR0000AHLM","1990-08-02",53.06,48.02,,,
"USR0000AHLM","1990-08-03",55.94,51.98,,,
"USR0000AHLM","1990-08-04",64.94,53.06,,,
"USR0000AHLM","1990-08-05",57.92,51.98,,,
"USR0000AHLM","1990-08-06",51.08,48.02,,,
"USR0000AHLM","1990-08-07",53.06,48.02,,,
"USR0000AHLM","1990-08-08",55.94,51.98,,,
"USR0000AHLM","1990-08-09",59.00,55.04,,,
"USR0000AHLM","1990-08-10",78.08,57.92,,,
"USR0000AHLM","1990-08-11",89.06,66.92,,,
"USR0000AHLM","1990-08-12",87.08,62.06,,,
"USR0000AHLM","1990-08-13",60.08,51.98,,,
"USR0000AHLM","1990-08-14",71.96,51.98,,,
"USR0000AHLM","1990-08-15",62.06,53.96,,,
"USR0000AHLM","1990-08-16",73.04,53.96,,,
"USR0000AHLM","1990-08-17",73.94,53.96,,,
"USR0000AHLM","1990-08-18",71.06,55.94,,,
"USR0000AHLM","1990-08-19",57.92,53.96,,,
"USR0000AHLM","1990-08-20",66.92,55.04,,,
"USR0000AHLM","1990-08-21",62.96,46.04,,,
"USR0000AHLM","1990-08-22",60.08,46.94,,,
"USR0000AHLM","1990-08-23",68.00,48.02,,,
"USR0000AHLM","1990-08-24",71.96,50.00,,,
"USR0000AHLM","1990-08-25",71.96,53.06,,,
"USR0000AHLM","1990-08-26",71.96,51.08,,,
"USR0000AHLM","1990-08-27",53.96,50.00,,,
"USR0000AHLM","1990-08-28",53.96,53.06,,,
"USR0000AHLM","1990-08-29",53.96,46.94,,,
"USR0000AHLM","1990-08-30",51.98,46.94,,,
"USR0000AHLM","1990-08-31",66.02,46.04,,,
"USR0000AHLM","1990-09-01",55.94,44.96,,,
"USR0000AHLM","1990-09-02",53.96,46.04,,,
"USR0000AHLM","1990-09-03",60.08,46.94,,,
"USR0000AHLM","1990-09-04",55.04,46.94,,,
"USR0000AHLM","1990-09-05",64.94,48.02,,,
"USR0000AHLM","1990-09-06",62.06,44.96,,,
"USR0000AHLM","1991-05-22",48.02,39.02,,,
"USR0000AHLM","1991-05-23",60.08,39.92,,,
"USR0000AHLM","1991-05-24",68.00,46.04,,,
"USR0000AHLM","1991-05-25",64.94,37.94,,,
"USR0000AHLM","1991-05-26",50.00,37.94,,,
"USR0000AHLM","1991-05-27",55.04,37.04,,,
"USR0000AHLM","1991-05-28",44.06,41.00,,,
"USR0000AHLM","1991-05-29",44.96,41.00,,,
"USR0000AHLM","1991-05-30",42.08,37.94,,,
"USR0000AHLM","1991-05-31",42.98,35.96,,,
"USR0000AHLM","1991-06-01",44.06,35.06,,,
"USR0000AHLM","1991-06-02",53.96,33.98,,,
"USR0000AHLM","1991-06-03",60.08,39.02,,,
"USR0000AHLM","1991-06-04",62.06,37.04,,,
"USR0000AHLM","1991-06-05",46.94,41.00,,,
"USR0000AHLM","1991-06-06",48.92,39.02,,,
"USR0000AHLM","1991-06-07",46.04,37.04,,,
"USR0000AHLM","1991-06-08",42.08,37.94,,,
"USR0000AHLM","1991-06-09",46.94,42.98,,,
"USR0000AHLM","1991-06-10",44.96,41.00,,,
"USR0000AHLM","1991-06-11",53.06,39.92,,,
"USR0000AHLM","1991-06-12",55.04,42.08,,,
"USR0000AHLM","1991-06-13",53.06,42.98,,,
"USR0000AHLM","1991-06-14",53.96,42.98,,,
"USR0000AHLM","1991-06-15",53.96,42.08,,,
"USR0000AHLM","1991-06-16",55.04,44.96,,,
"USR0000AHLM","1991-06-17",68.00,42.98,,,
"USR0000AHLM","1991-06-18",60.98,42.08,,,
"USR0000AHLM","1991-06-19",75.92,48.02,,,
"USR0000AHLM","1991-06-20",87.98,60.98,,,
"USR0000AHLM","1991-06-21",77.00,48.02,,,
"USR0000AHLM","1991-06-22",73.94,48.02,,,
"USR0000AHLM","1991-06-23",71.06,48.02,,,
"USR0000AHLM","1991-06-24",73.94,48.02,,,
"USR0000AHLM","1991-06-25",69.08,46.04,,,
"USR0000AHLM","1991-06-26",73.04,44.96,,,
"USR0000AHLM","1991-06-27",73.04,46.94,,,
"USR0000AHLM","1991-06-28",68.00,48.92,,,
"USR0000AHLM","1991-06-29",57.92,46.04,,,
"USR0000AHLM","1991-06-30",53.96,46.04,,,
"USR0000AHLM","1991-07-01",51.08,46.94,,,
"USR0000AHLM","1991-07-02",51.98,46.04,,,
"USR0000AHLM","1991-07-03",53.06,44.96,,,
"USR0000AHLM","1991-07-04",53.96,44.06,,,
"USR0000AHLM","1991-07-05",57.02,42.98,,,
"USR0000AHLM","1991-07-06",59.00,46.94,,,
"USR0000AHLM","1991-07-07",59.00,46.94,,,
"USR0000AHLM","1991-07-08",64.94,46.04,,,
"USR0000AHLM","1991-07-09",62.06,44.96,,,
"USR0000AHLM","1991-07-10",51.08,48.02,,,
"USR0000AHLM","1991-07-11",51.98,48.92,,,
"USR0000AHLM","1991-07-12",51.98,50.00,,,
"USR0000AHLM","1991-07-13",62.06,46.94,,,
"USR0000AHLM","1991-07-14",60.98,46.94,,,
"USR0000AHLM","1991-07-15",69.08,48.02,,,
"USR0000AHLM","1991-07-16",51.98,46.94,,,
"USR0000AHLM","1991-07-17",48.92,44.06,,,
"USR0000AHLM","1991-07-18",53.96,42.98,,,
"USR0000AHLM","1991-07-19",59.00,42.98,,,
"USR0000AHLM","1991-07-20",62.96,44.06,,,
"USR0000AHLM","1991-07-21",64.04,46.04,,,
"USR0000AHLM","1991-07-22",60.98,51.98,,,
"USR0000AHLM","1991-07-23",84.92,57.02,,,
"USR0000AHLM","1991-07-24",78.08,48.92,,,
"USR0000AHLM","1991-07-25",53.06,48.02,,,
"USR0000AHLM","1991-07-26",50.00,48.02,,,
"USR0000AHLM","1991-07-27",50.00,46.04,,,
"USR0000AHLM","1991-07-28",48.02,44.96,,,
"USR0000AHLM","1991-07-29",57.02,46.04,,,
"USR0000AHLM","1991-07-30",59.00,44.96,,,
"USR0000AHLM","1991-07-31",64.04,44.96,,,
"USR0000AHLM","1991-08-01",55.04,46.94,,,
"USR0000AHLM","1991-08-02",51.98,48.02,,,
"USR0000AHLM","1991-08-03",53.06,46.04,,,
"USR0000AHLM","1991-08-04",55.94,44.96,,,
"USR0000AHLM","1991-08-05",60.98,44.06,,,
"USR0000AHLM","1991-08-06",73.94,46.94,,,
"USR0000AHLM","1991-08-07",69.08,50.00,,,
"USR0000AHLM","1991-08-08",57.92,51.98,,,
"USR0000AHLM","1991-08-09",51.08,46.94,,,
"USR0000AHLM","1991-08-10",62.96,46.94,,,
"USR0000AHLM","1991-08-11",73.94,50.00,,,
"USR0000AHLM","1991-08-12",75.02,57.02,,,
"USR0000AHLM","1991-08-13",80.06,59.00,,,
"USR0000AHLM","1991-08-14",77.00,55.04,,,
"USR0000AHLM","1991-08-15",71.06,51.08,,,
"USR0000AHLM","1991-08-16",75.92,53.96,,,
"USR0000AHLM","1991-08-17",78.08,55.94,,,
"USR0000AHLM","1991-08-18",55.94,48.92,,,
"USR0000AHLM","1991-08-19",53.06,48.02,,,
"USR0000AHLM","1991-08-20",51.08,46.94,,,
"USR0000AHLM","1991-08-21",55.94,46.94,,,
"USR0000AHLM","1991-08-22",53.06,46.94,,,
"USR0000AHLM","1991-08-23",57.92,46.94,,,
"USR0000AHLM","1991-08-24",60.98,46.94,,,
"USR0000AHLM","1991-08-25",50.00,44.96,,,
"USR0000AHLM","1991-08-26",48.02,44.96,,,
"USR0000AHLM","1991-08-27",48.02,44.06,,,
"USR0000AHLM","1991-08-28",51.08,44.06,,,
"USR0000AHLM","1991-08-29",53.96,44.06,,,
"USR0000AHLM","1991-08-30",48.02,44.96,,,
"USR0000AHLM","1991-08-31",50.00,44.06,,,
"USR0000AHLM","1991-09-01",57.02,44.96,,,
"USR0000AHLM","1991-09-02",53.06,44.06,,,
"USR0000AHLM","1991-09-03",53.06,50.00,,,
"USR0000AHLM","1991-09-04",55.94,51.98,,,
"USR0000AHLM","1991-09-05",53.06,46.04,,,
"USR0000AHLM","1991-09-06",53.96,44.96,,,
"USR0000AHLM","1991-09-07",60.98,44.06,,,
"USR0000AHLM","1991-09-08",62.06,42.98,,,
"USR0000AHLM","1991-09-09",48.02,46.04,,,
"USR0000AHLM","1991-09-10",48.92,46.94,,,
"USR0000AHLM","1991-09-11",50.00,48.02,,,
"USR0000AHLM","1991-09-12",51.98,44.96,,,
"USR0000AHLM","1991-09-13",55.04,42.98,,,
"USR0000AHLM","1991-09-14",46.94,44.06,,,
"USR0000AHLM","1991-09-15",53.06,46.94,,,
"USR0000AHLM","1991-09-16",48.92,46.94,,,
"USR0000AHLM","1992-05-14",55.04,37.04,,,
"USR0000AHLM","1992-05-15",60.98,39.02,,,
"USR0000AHLM","1992-05-16",48.02,33.08,,,
"USR0000AHLM","1992-05-17",48.92,33.08,,,
"USR0000AHLM","1992-05-18",48.92,33.98,,,
"USR0000AHLM","1992-05-19",53.06,33.98,,,
"USR0000AHLM","1992-05-20",60.98,37.94,,,
"USR0000AHLM","1992-05-21",60.98,42.08,,,
"USR0000AHLM","1992-05-22",57.92,44.96,,,
"USR0000AHLM","1992-05-23",62.96,44.06,,,
"USR0000AHLM","1992-05-24",51.08,50.00,,,
"USR0000AHLM","1992-05-25",51.98,44.06,,,
"USR0000AHLM","1992-05-26",44.06,42.98,,,
"USR0000AHLM","1992-05-27",53.06,44.06,,,
"USR0000AHLM","1992-05-28",55.94,44.96,,,
"USR0000AHLM","1992-05-29",57.92,44.96,,,
"USR0000AHLM","1992-05-30",48.92,46.04,,,
"USR0000AHLM","1992-05-31",48.92,42.98,,,
"USR0000AHLM","1992-06-01",46.94,39.92,,,
"USR0000AHLM","1992-06-02",53.96,39.02,,,
"USR0000AHLM","1992-06-03",60.98,41.00,,,
"USR0000AHLM","1992-06-04",66.92,42.08,,,
"USR0000AHLM","1992-06-05",64.94,41.00,,,
"USR0000AHLM","1992-06-06",55.94,42.98,,,
"USR0000AHLM","1992-06-07",46.94,42.08,,,
"USR0000AHLM","1992-06-08",50.00,44.06,,,
"USR0000AHLM","1992-06-09",64.04,44.06,,,
"USR0000AHLM","1992-06-10",62.06,46.94,,,
"USR0000AHLM","1992-06-11",68.00,48.92,,,
"USR0000AHLM","1992-06-12",73.04,51.08,,,
"USR0000AHLM","1992-06-13",71.06,50.00,,,
"USR0000AHLM","1992-06-14",60.98,46.04,,,
"USR0000AHLM","1992-06-15",62.06,44.06,,,
"USR0000AHLM","1992-06-16",59.00,42.08,,,
"USR0000AHLM","1992-06-17",55.04,41.00,,,
"USR0000AHLM","1992-06-18",48.92,42.98,,,
"USR0000AHLM","1992-06-19",51.98,48.92,,,
"USR0000AHLM","1992-06-20",50.00,44.06,,,
"USR0000AHLM","1992-06-21",66.02,42.98,,,
"USR0000AHLM","1992-06-22",57.92,51.98,,,
"USR0000AHLM","1992-06-23",69.08,50.00,,,
"USR0000AHLM","1992-06-24",71.96,46.04,,,
"USR0000AHLM","1992-06-25",75.02,48.92,,,
"USR0000AHLM","1992-06-26",77.00,51.98,,,
"USR0000AHLM","1992-06-27",78.08,55.04,,,
"USR0000AHLM","1992-06-28",82.94,57.02,,,
"USR0000AHLM","1992-06-29",86.00,64.94,,,
"USR0000AHLM","1992-06-30",75.92,55.04,,,
"USR0000AHLM","1992-07-01",80.96,53.96,,,
"USR0000AHLM","1992-07-02",73.04,51.08,,,
"USR0000AHLM","1992-07-03",73.04,51.08,,,
"USR0000AHLM","1992-07-04",78.98,53.96,,,
"USR0000AHLM","1992-07-05",68.00,44.96,,,
"USR0000AHLM","1992-07-06",59.00,46.04,,,
"USR0000AHLM","1992-07-07",66.02,44.96,,,
"USR0000AHLM","1992-07-08",57.92,44.96,,,
"USR0000AHLM","1992-07-09",53.06,50.00,,,
"USR0000AHLM","1992-07-10",62.96,48.92,,,
"USR0000AHLM","1992-07-11",55.94,50.00,,,
"USR0000AHLM","1992-07-12",55.04,44.96,,,
"USR0000AHLM","1992-07-13",53.96,44.96,,,
"USR0000AHLM","1992-07-14",53.96,46.04,,,
"USR0000AHLM","1992-07-15",57.02,46.94,,,
"USR0000AHLM","1992-07-16",66.02,48.92,,,
"USR0000AHLM","1992-07-17",68.00,48.02,,,
"USR0000AHLM","1992-07-18",73.94,48.92,,,
"USR0000AHLM","1992-07-19",77.00,51.08,,,
"USR0000AHLM","1992-07-20",64.94,46.94,,,
"USR0000AHLM","1992-07-21",64.94,46.94,,,
"USR0000AHLM","1992-07-22",69.08,46.94,,,
"USR0000AHLM","1992-07-23",64.94,46.04,,,
"USR0000AHLM","1992-07-24",51.98,50.00,,,
"USR0000AHLM","1992-07-25",50.00,48.02,,,
"USR0000AHLM","1992-07-26",50.00,48.02,,,
"USR0000AHLM","1992-07-27",51.98,48.02,,,
"USR0000AHLM","1992-07-28",53.96,48.02,,,
"USR0000AHLM","1992-07-29",57.92,46.94,,,
"USR0000AHLM","1992-07-30",60.08,46.04,,,
"USR0000AHLM","1992-07-31",71.96,44.06,,,
"USR0000AHLM","1992-08-01",78.98,51.98,,,
"USR0000AHLM","1992-08-02",73.94,51.98,,,
"USR0000AHLM","1992-08-03",73.04,53.96,,,
"USR0000AHLM","1992-08-04",78.08,53.06,,,
"USR0000AHLM","1992-08-05",51.98,48.92,,,
"USR0000AHLM","1992-08-06",60.98,46.94,,,
"USR0000AHLM","1992-08-07",60.08,46.94,,,
"USR0000AHLM","1992-08-08",62.96,46.94,,,
"USR0000AHLM","1992-08-09",66.02,48.92,,,
"USR0000AHLM","1992-08-10",60.98,53.06,,,
"USR0000AHLM","1992-08-11",60.98,50.00,,,
"USR0000AHLM","1992-08-12",66.92,48.02,,,
"USR0000AHLM","1992-08-13",68.00,46.94,,,
"USR0000AHLM","1992-08-14",55.04,46.94,,,
"USR0000AHLM","1992-08-15",48.92,46.04,,,
"USR0000AHLM","1992-08-16",53.06,48.92,,,
"USR0000AHLM","1992-08-17",66.02,46.04,,,
"USR0000AHLM","1992-08-18",60.98,44.06,,,
"USR0000AHLM","1992-08-19",66.92,44.96,,,
"USR0000AHLM","1992-08-20",71.96,46.94,,,
"USR0000AHLM","1992-08-21",75.02,51.98,,,
"USR0000AHLM","1992-08-22",69.08,55.04,,,
"USR0000AHLM","1992-08-23",57.02,51.98,,,
"USR0000AHLM","1992-08-24",55.94,51.98,,,
"USR0000AHLM","1992-08-25",59.00,48.02,,,
"USR0000AHLM","1992-08-26",62.06,44.06,,,
"USR0000AHLM","1992-08-27",60.98,44.06,,,
"USR0000AHLM","1992-08-28",60.98,42.08,,,
"USR0000AHLM","1992-08-29",50.00,46.04,,,
"USR0000AHLM","1992-08-30",66.02,48.92,,,
"USR0000AHLM","1992-08-31",51.08,46.94,,,
"USR0000AHLM","1992-09-01",57.02,42.98,,,
"USR0000AHLM","1992-09-02",53.06,42.98,,,
"USR0000AHLM","1992-09-03",51.98,39.02,,,
"USR0000AHLM","1992-09-04",48.92,39.92,,,
"USR0000AHLM","1992-09-05",48.02,42.08,,,
"USR0000AHLM","1992-09-06",48.92,42.98,,,
"USR0000AHLM","1992-09-07",50.00,42.08,,,
"USR0000AHLM","1992-09-08",46.04,44.06,,,
"USR0000AHLM","1992-09-09",48.92,44.96,,,
"USR0000AHLM","1992-09-10",53.06,42.98,,,
"USR0000AHLM","1992-09-11",48.02,42.98,,,
"USR0000AHLM","1992-09-12",51.08,33.98,,,
"USR0000AHLM","1992-09-13",48.92,32.00,,,
"USR0000AHLM","1992-09-14",51.08,33.98,,,
"USR0000AHLM","1992-09-15",44.96,35.96,,,
"USR0000AHLM","1992-09-16",44.06,33.08,,,
"USR0000AHLM","1992-09-17",44.96,37.94,,,
"USR0000AHLM","1992-09-18",50.00,44.96,,,
"USR0000AHLM","1992-09-19",50.00,39.92,,,
"USR0000AHLM","1992-09-20",48.92,39.02,,,
"USR0000AHLM","1992-09-21",51.08,39.92,,,
"USR0000AHLM","1992-09-22",51.98,48.02,,,
"USR0000AHLM","1992-09-23",51.98,42.08,,,
"USR0000AHLM","1992-09-24",42.08,39.92,,,
"USR0000AHLM","1993-05-12",64.04,53.96,,,
"USR0000AHLM","1993-05-13",82.94,44.96,,,
"USR0000AHLM","1993-05-14",69.98,44.06,,,
"USR0000AHLM","1993-05-15",53.96,46.04,,,
"USR0000AHLM","1993-05-16",53.06,42.08,,,
"USR0000AHLM","1993-05-17",62.06,42.98,,,
"USR0000AHLM","1993-05-18",75.02,51.98,,,
"USR0000AHLM","1993-05-19",68.00,51.08,,,
"USR0000AHLM","1993-05-20",51.98,46.04,,,
"USR0000AHLM","1993-05-21",51.98,46.04,,,
"USR0000AHLM","1993-05-22",57.92,44.96,,,
"USR0000AHLM","1993-05-23",64.94,44.96,,,
"USR0000AHLM","1993-05-24",69.08,50.00,,,
"USR0000AHLM","1993-05-25",73.04,51.98,,,
"USR0000AHLM","1993-05-26",73.94,53.06,,,
"USR0000AHLM","1993-05-27",75.02,51.98,,,
"USR0000AHLM","1993-05-28",73.04,48.02,,,
"USR0000AHLM","1993-05-29",66.92,48.02,,,
"USR0000AHLM","1993-05-30",57.02,48.02,,,
"USR0000AHLM","1993-05-31",60.98,50.00,,,
"USR0000AHLM","1993-06-01",55.04,46.94,,,
"USR0000AHLM","1993-06-02",64.04,46.94,,,
"USR0000AHLM","1993-06-03",71.96,51.08,,,
"USR0000AHLM","1993-06-04",71.96,48.02,,,
"USR0000AHLM","1993-06-05",71.06,69.08,,,
"USR0000AHLM","1993-06-06",57.92,42.98,,,
"USR0000AHLM","1993-06-07",53.06,39.92,,,
"USR0000AHLM","1993-06-08",51.98,42.98,,,
"USR0000AHLM","1993-06-09",57.92,44.96,,,
"USR0000AHLM","1993-06-10",53.06,44.06,,,
"USR0000AHLM","1993-06-11",64.94,41.00,,,
"USR0000AHLM","1993-06-12",703.94,44.96,,,
"USR0000AHLM","1993-06-13",66.92,46.04,,,
"USR0000AHLM","1993-06-14",69.98,51.08,,,
"USR0000AHLM","1993-06-15",66.02,51.08,,,
"USR0000AHLM","1993-06-16",55.94,46.94,,,
"USR0000AHLM","1993-06-17",51.08,44.96,,,
"USR0000AHLM","1993-06-18",53.96,44.96,,,
"USR0000AHLM","1993-06-19",51.98,42.98,,,
"USR0000AHLM","1993-06-20",59.00,42.08,,,
"USR0000AHLM","1993-06-21",66.92,44.06,,,
"USR0000AHLM","1993-06-22",64.94,46.04,,,
"USR0000AHLM","1993-06-23",57.02,44.96,,,
"USR0000AHLM","1993-06-24",48.92,44.96,,,
"USR0000AHLM","1993-06-25",59.00,44.96,,,
"USR0000AHLM","1993-06-26",62.06,46.04,,,
"USR0000AHLM","1993-06-27",66.92,46.04,,,
"USR0000AHLM","1993-06-28",57.02,46.94,,,
"USR0000AHLM","1993-06-29",57.92,46.04,,,
"USR0000AHLM","1993-06-30",60.98,48.02,,,
"USR0000AHLM","1993-07-01",60.98,46.94,,,
"USR0000AHLM","1993-07-02",64.94,48.02,,,
"USR0000AHLM","1993-07-03",57.02,46.94,,,
"USR0000AHLM","1993-07-04",55.04,44.96,,,
"USR0000AHLM","1993-07-05",59.00,44.96,,,
"USR0000AHLM","1993-07-06",64.04,44.96,,,
"USR0000AHLM","1993-07-07",64.04,46.04,,,
"USR0000AHLM","1993-07-08",73.04,46.04,,,
"USR0000AHLM","1993-07-09",69.08,55.94,,,
"USR0000AHLM","1993-07-10",73.04,51.08,,,
"USR0000AHLM","1993-07-11",64.94,53.06,,,
"USR0000AHLM","1993-07-12",73.94,60.98,,,
"USR0000AHLM","1993-07-13",80.06,60.08,,,
"USR0000AHLM","1993-07-14",77.00,53.06,,,
"USR0000AHLM","1993-07-15",75.02,51.08,,,
"USR0000AHLM","1993-07-16",77.00,57.02,,,
"USR0000AHLM","1993-07-17",69.98,51.08,,,
"USR0000AHLM","1993-07-18",69.98,51.08,,,
"USR0000AHLM","1993-07-19",73.94,51.08,,,
"USR0000AHLM","1993-07-20",69.98,48.92,,,
"USR0000AHLM","1993-07-21",55.04,48.02,,,
"USR0000AHLM","1993-07-22",51.08,48.92,,,
"USR0000AHLM","1993-07-23",59.00,48.02,,,
"USR0000AHLM","1993-07-24",62.06,46.94,,,
"USR0000AHLM","1993-07-25",64.94,51.98,,,
"USR0000AHLM","1993-07-26",57.92,48.92,,,
"USR0000AHLM","1993-07-27",60.08,48.02,,,
"USR0000AHLM","1993-07-28",69.98,50.00,,,
"USR0000AHLM","1993-07-29",53.96,48.92,,,
"USR0000AHLM","1993-07-30",51.98,48.02,,,
"USR0000AHLM","1993-07-31",59.00,50.00,,,
"USR0000AHLM","1993-08-01",68.00,53.06,,,
"USR0000AHLM","1993-08-02",71.96,53.06,,,
"USR0000AHLM","1993-08-03",77.00,55.94,,,
"USR0000AHLM","1993-08-04",82.04,60.98,,,
"USR0000AHLM","1993-08-05",69.08,53.06,,,
"USR0000AHLM","1993-08-06",69.98,51.08,,,
"USR0000AHLM","1993-08-07",62.96,53.06,,,
"USR0000AHLM","1993-08-08",71.96,51.98,,,
"USR0000AHLM","1993-08-09",77.00,55.94,,,
"USR0000AHLM","1993-08-10",73.94,55.04,,,
"USR0000AHLM","1993-08-11",59.00,51.08,,,
"USR0000AHLM","1993-08-12",53.96,51.08,,,
"USR0000AHLM","1993-08-13",62.06,51.08,,,
"USR0000AHLM","1993-08-14",71.06,48.92,,,
"USR0000AHLM","1993-08-15",64.04,51.98,,,
"USR0000AHLM","1993-08-16",66.92,51.08,,,
"USR0000AHLM","1993-08-17",53.06,51.08,,,
"USR0000AHLM","1993-08-18",69.08,48.02,,,
"USR0000AHLM","1993-08-19",71.06,48.92,,,
"USR0000AHLM","1993-08-20",62.06,48.92,,,
"USR0000AHLM","1993-08-21",53.06,48.02,,,
"USR0000AHLM","1993-08-22",59.00,46.94,,,
"USR0000AHLM","1993-08-23",50.00,44.06,,,
"USR0000AHLM","1993-08-24",62.06,46.04,,,
"USR0000AHLM","1993-08-25",60.98,42.98,,,
"USR0000AHLM","1993-08-26",48.02,44.96,,,
"USR0000AHLM","1993-08-27",55.04,46.94,,,
"USR0000AHLM","1993-08-28",62.96,48.02,,,
"USR0000AHLM","1993-08-29",66.02,46.04,,,
"USR0000AHLM","1993-08-30",66.92,50.00,,,
"USR0000AHLM","1993-08-31",57.92,51.98,,,
"USR0000AHLM","1993-09-01",68.00,53.06,,,
"USR0000AHLM","1993-09-02",71.06,53.96,,,
"USR0000AHLM","1993-09-03",66.02,48.02,,,
"USR0000AHLM","1993-09-04",71.96,46.04,,,
"USR0000AHLM","1993-09-05",71.06,53.06,,,
"USR0000AHLM","1993-09-06",78.08,55.94,,,
"USR0000AHLM","1993-09-07",66.02,50.00,,,
"USR0000AHLM","1993-09-08",69.08,51.98,,,
"USR0000AHLM","1993-09-09",69.98,51.08,,,
"USR0000AHLM","1993-09-10",55.94,44.96,,,
"USR0000AHLM","1993-09-11",60.98,42.98,,,
"USR0000AHLM","1993-09-12",57.92,44.06,,,
"USR0000AHLM","1993-09-13",57.92,48.02,,,
"USR0000AHLM","1993-09-14",64.94,46.94,,,
"USR0000AHLM","1993-09-15",57.92,51.98,,,
"USR0000AHLM","1994-06-06",66.92,46.04,,,
"USR0000AHLM","1994-06-07",60.08,44.06,,,
"USR0000AHLM","1994-06-08",53.96,42.98,,,
"USR0000AHLM","1994-06-09",48.92,42.98,,,
"USR0000AHLM","1994-06-10",53.96,44.06,,,
"USR0000AHLM","1994-06-11",48.92,44.06,,,
"USR0000AHLM","1994-06-12",51.98,42.08,,,
"USR0000AHLM","1994-06-13",64.04,46.04,,,
"USR0000AHLM","1994-06-14",62.96,48.92,,,
"USR0000AHLM","1994-06-15",66.02,48.02,,,
"USR0000AHLM","1994-06-16",57.02,44.96,,,
"USR0000AHLM","1994-06-17",51.08,44.96,,,
"USR0000AHLM","1994-06-18",55.04,42.98,,,
"USR0000AHLM","1994-06-19",53.06,42.08,,,
"USR0000AHLM","1994-06-20",53.96,42.98,,,
"USR0000AHLM","1994-06-21",66.92,42.98,,,
"USR0000AHLM","1994-06-22",68.00,46.94,,,
"USR0000AHLM","1994-06-23",75.92,48.92,,,
"USR0000AHLM","1994-06-24",64.04,48.02,,,
"USR0000AHLM","1994-06-25",66.92,42.98,,,
"USR0000AHLM","1994-06-26",55.94,41.00,,,
"USR0000AHLM","1994-06-27",50.00,42.98,,,
"USR0000AHLM","1994-06-28",46.94,42.98,,,
"USR0000AHLM","1994-06-29",46.94,42.08,,,
"USR0000AHLM","1994-06-30",48.02,42.98,,,
"USR0000AHLM","1994-07-01",64.04,44.06,,,
"USR0000AHLM","1994-07-02",55.04,44.96,,,
"USR0000AHLM","1994-07-03",50.00,44.06,,,
"USR0000AHLM","1994-07-04",60.98,44.06,,,
"USR0000AHLM","1994-07-05",51.98,46.94,,,
"USR0000AHLM","1994-07-06",50.00,48.02,,,
"USR0000AHLM","1994-07-07",51.98,44.06,,,
"USR0000AHLM","1994-07-08",55.94,44.06,,,
"USR0000AHLM","1994-07-09",59.00,44.96,,,
"USR0000AHLM","1994-07-10",59.00,44.96,,,
"USR0000AHLM","1994-07-11",71.06,44.06,,,
"USR0000AHLM","1994-07-12",77.00,48.92,,,
"USR0000AHLM","1994-07-13",73.94,53.06,,,
"USR0000AHLM","1994-07-14",77.00,51.98,,,
"USR0000AHLM","1994-07-15",66.92,51.08,,,
"USR0000AHLM","1994-07-16",51.08,50.00,,,
"USR0000AHLM","1994-07-17",50.00,48.92,,,
"USR0000AHLM","1994-07-18",50.00,48.92,,,
"USR0000AHLM","1994-07-19",53.06,48.02,,,
"USR0000AHLM","1994-07-20",57.02,19.04,,,
"USR0000AHLM","1994-07-21",66.02,39.92,,,
"USR0000AHLM","1994-07-22",73.04,48.92,,,
"USR0000AHLM","1994-07-23",78.08,53.06,,,
"USR0000AHLM","1994-07-24",80.06,60.08,,,
"USR0000AHLM","1994-07-25",60.08,50.00,,,
"USR0000AHLM","1994-07-26",53.06,48.02,,,
"USR0000AHLM","1994-07-27",66.92,50.00,,,
"USR0000AHLM","1994-07-28",59.00,48.02,,,
"USR0000AHLM","1994-07-29",57.92,48.02,,,
"USR0000AHLM","1994-07-30",53.96,39.02,,,
"USR0000AHLM","1994-07-31",66.92,46.94,,,
"USR0000AHLM","1994-08-01",71.96,50.00,,,